Time,TemperatureF,DewpointF,PressureIn,WindDirection,WindDirectionDegrees,WindSpeedMPH,WindSpeedGustMPH,Humidity,HourlyPrecipIn,Conditions,Clouds,dailyrainin,SoftwareType,DateUTC
2013-02-19 00:02:00,20.3,7.2,30.35,SSW,203,1.0,2.0,56,0.00,,,0.00,meteohub,2013-02-19 07:02:00,
2013-02-19 00:07:00,20.1,7.3,30.35,SSW,204,1.0,2.0,57,0.00,,,0.00,meteohub,2013-02-19 07:07:00,
2013-02-19 00:12:00,19.9,7.2,30.35,SSW,204,0.0,2.0,57,0.00,,,0.00,meteohub,2013-02-19 07:12:00,
2013-02-19 00:17:00,19.9,7.5,30.35,SSW,204,0.0,2.0,58,0.00,,,0.00,meteohub,2013-02-19 07:17:00,
2013-02-19 00:22:00,19.8,7.7,30.35,SSW,204,0.0,1.0,59,0.00,,,0.00,meteohub,2013-02-19 07:22:00,
2013-02-19 00:27:00,19.6,7.5,30.35,SSW,204,0.0,1.0,59,0.00,,,0.00,meteohub,2013-02-19 07:27:00,
2013-02-19 00:32:00,19.6,7.5,30.34,SSW,204,0.0,0.0,59,0.00,,,0.00,meteohub,2013-02-19 07:32:00,
2013-02-19 00:37:00,19.2,7.2,30.35,SSW,204,0.0,0.0,59,0.00,,,0.00,meteohub,2013-02-19 07:37:00,
2013-02-19 00:42:00,19.0,7.5,30.35,SSW,204,0.0,0.0,60,0.00,,,0.00,meteohub,2013-02-19 07:42:00,
2013-02-19 00:47:00,19.0,7.9,30.35,SSW,204,0.0,0.0,61,0.00,,,0.00,meteohub,2013-02-19 07:47:00,
2013-02-19 00:52:00,18.9,7.3,30.35,SSW,204,0.0,0.0,60,0.00,,,0.00,meteohub,2013-02-19 07:52:00,
2013-02-19 00:57:00,18.9,7.7,30.35,SSW,204,0.0,0.0,61,0.00,,,0.00,meteohub,2013-02-19 07:57:00,
2013-02-19 01:02:00,18.9,7.7,30.35,SSW,204,0.0,0.0,61,0.00,,,0.00,meteohub,2013-02-19 08:02:00,
2013-02-19 01:07:00,18.7,7.5,30.35,SSW,204,0.0,0.0,61,0.00,,,0.00,meteohub,2013-02-19 08:07:00,
2013-02-19 01:12:00,18.5,7.7,30.35,SSW,203,0.0,0.0,62,0.00,,,0.00,meteohub,2013-02-19 08:12:00,
2013-02-19 01:17:00,18.3,7.5,30.35,SSW,204,0.0,0.0,62,0.00,,,0.00,meteohub,2013-02-19 08:17:00,
2013-02-19 01:22:00,18.1,7.7,30.35,SSW,204,0.0,0.0,63,0.00,,,0.00,meteohub,2013-02-19 08:22:00,
2013-02-19 01:27:00,18.1,8.1,30.34,SSW,204,0.0,0.0,64,0.00,,,0.00,meteohub,2013-02-19 08:27:00,
2013-02-19 01:32:00,18.0,7.9,30.34,SSW,204,0.0,0.0,64,0.00,,,0.00,meteohub,2013-02-19 08:32:00,
2013-02-19 01:37:00,17.8,7.7,30.34,SSW,204,0.0,0.0,64,0.00,,,0.00,meteohub,2013-02-19 08:37:00,
2013-02-19 01:42:00,17.8,7.3,30.34,SSW,204,0.0,0.0,63,0.00,,,0.00,meteohub,2013-02-19 08:42:00,
2013-02-19 01:47:00,17.6,8.2,30.34,SSW,203,0.0,0.0,66,0.00,,,0.00,meteohub,2013-02-19 08:47:00,
2013-02-19 01:52:00,17.6,8.2,30.35,SSW,204,0.0,0.0,66,0.00,,,0.00,meteohub,2013-02-19 08:52:00,
2013-02-19 01:57:00,17.6,7.9,30.34,SSW,204,0.0,0.0,65,0.00,,,0.00,meteohub,2013-02-19 08:57:00,
2013-02-19 02:02:00,17.6,7.5,30.34,SSW,206,0.0,0.0,64,0.00,,,0.00,meteohub,2013-02-19 09:02:00,
2013-02-19 02:07:00,17.4,7.3,30.34,SSW,206,0.0,0.0,64,0.00,,,0.00,meteohub,2013-02-19 09:07:00,
2013-02-19 02:12:00,17.4,7.3,30.34,SSW,206,0.0,0.0,64,0.00,,,0.00,meteohub,2013-02-19 09:12:00,
2013-02-19 02:17:00,17.2,7.2,30.34,SSW,206,0.0,0.0,64,0.00,,,0.00,meteohub,2013-02-19 09:17:00,
2013-02-19 02:22:00,17.2,7.5,30.34,SSW,206,0.0,0.0,65,0.00,,,0.00,meteohub,2013-02-19 09:22:00,
2013-02-19 02:27:00,17.1,7.0,30.34,SSW,206,0.0,0.0,64,0.00,,,0.00,meteohub,2013-02-19 09:27:00,
2013-02-19 02:32:00,16.9,7.2,30.34,SSW,206,0.0,0.0,65,0.00,,,0.00,meteohub,2013-02-19 09:32:00,
2013-02-19 02:37:00,16.9,6.8,30.34,SSW,206,0.0,0.0,64,0.00,,,0.00,meteohub,2013-02-19 09:37:00,
2013-02-19 02:43:00,16.5,6.8,30.34,SSW,204,0.0,0.0,65,0.00,,,0.00,meteohub,2013-02-19 09:43:00,
2013-02-19 02:48:00,16.3,6.6,30.34,SSW,194,0.0,0.0,65,0.00,,,0.00,meteohub,2013-02-19 09:48:00,
2013-02-19 02:53:00,16.3,7.0,30.33,South,179,0.0,0.0,66,0.00,,,0.00,meteohub,2013-02-19 09:53:00,
2013-02-19 02:58:00,16.3,7.0,30.34,South,179,0.0,0.0,66,0.00,,,0.00,meteohub,2013-02-19 09:58:00,
2013-02-19 03:03:00,16.3,7.0,30.34,South,179,0.0,0.0,66,0.00,,,0.00,meteohub,2013-02-19 10:03:00,
2013-02-19 03:08:00,16.3,7.0,30.34,South,179,0.0,0.0,66,0.00,,,0.00,meteohub,2013-02-19 10:08:00,
2013-02-19 03:13:00,16.3,7.0,30.34,South,179,0.0,0.0,66,0.00,,,0.00,meteohub,2013-02-19 10:13:00,
2013-02-19 03:18:00,16.7,7.7,30.34,SW,215,0.0,0.0,67,0.00,,,0.00,meteohub,2013-02-19 10:18:00,
2013-02-19 03:23:00,17.1,7.7,30.34,SW,215,0.0,0.0,66,0.00,,,0.00,meteohub,2013-02-19 10:23:00,
2013-02-19 03:28:00,17.2,7.9,30.34,SW,215,0.0,0.0,66,0.00,,,0.00,meteohub,2013-02-19 10:28:00,
2013-02-19 03:33:00,17.4,8.1,30.34,SW,215,0.0,0.0,66,0.00,,,0.00,meteohub,2013-02-19 10:33:00,
2013-02-19 03:38:00,17.4,8.1,30.33,SW,215,0.0,0.0,66,0.00,,,0.00,meteohub,2013-02-19 10:38:00,
2013-02-19 03:43:00,17.8,8.4,30.34,SW,215,0.0,0.0,66,0.00,,,0.00,meteohub,2013-02-19 10:43:00,
2013-02-19 03:48:00,18.0,8.6,30.33,SW,215,0.0,0.0,66,0.00,,,0.00,meteohub,2013-02-19 10:48:00,
2013-02-19 03:53:00,18.0,8.2,30.33,SW,215,0.0,0.0,65,0.00,,,0.00,meteohub,2013-02-19 10:53:00,
2013-02-19 03:58:00,18.0,8.2,30.33,SSE,149,0.0,0.0,65,0.00,,,0.00,meteohub,2013-02-19 10:58:00,
2013-02-19 04:03:00,18.1,8.4,30.33,SE,142,0.0,0.0,65,0.00,,,0.00,meteohub,2013-02-19 11:03:00,
2013-02-19 04:08:00,18.1,8.8,30.33,SE,130,0.0,0.0,66,0.00,,,0.00,meteohub,2013-02-19 11:08:00,
2013-02-19 04:13:00,18.3,9.0,30.33,SE,127,0.0,0.0,66,0.00,,,0.00,meteohub,2013-02-19 11:13:00,
2013-02-19 04:18:00,18.3,9.0,30.33,SE,127,0.0,0.0,66,0.00,,,0.00,meteohub,2013-02-19 11:18:00,
2013-02-19 04:23:00,18.3,9.0,30.33,SE,127,0.0,0.0,66,0.00,,,0.00,meteohub,2013-02-19 11:23:00,
2013-02-19 04:28:00,18.3,9.0,30.33,SE,127,0.0,0.0,66,0.00,,,0.00,meteohub,2013-02-19 11:28:00,
2013-02-19 04:33:00,18.3,9.0,30.33,SE,127,0.0,0.0,66,0.00,,,0.00,meteohub,2013-02-19 11:33:00,
2013-02-19 04:38:00,18.3,9.0,30.33,SE,127,0.0,0.0,66,0.00,,,0.00,meteohub,2013-02-19 11:38:00,
2013-02-19 04:43:00,18.3,9.1,30.32,SE,125,0.0,0.0,67,0.00,,,0.00,meteohub,2013-02-19 11:43:00,
2013-02-19 04:48:00,18.7,9.5,30.32,ESE,122,0.0,0.0,67,0.00,,,0.00,meteohub,2013-02-19 11:48:00,
2013-02-19 04:53:00,18.7,9.5,30.32,ESE,122,0.0,0.0,67,0.00,,,0.00,meteohub,2013-02-19 11:53:00,
2013-02-19 04:58:00,18.7,9.5,30.32,NNE,27,0.0,2.0,67,0.00,,,0.00,meteohub,2013-02-19 11:58:00,
2013-02-19 05:03:00,18.9,9.7,30.32,NW,317,4.0,4.0,67,0.00,,,0.00,meteohub,2013-02-19 12:03:00,
2013-02-19 05:08:00,19.4,9.9,30.32,NW,319,1.0,4.0,66,0.00,,,0.00,meteohub,2013-02-19 12:08:00,
2013-02-19 05:13:00,19.8,9.9,30.32,NW,322,1.0,4.0,65,0.00,,,0.00,meteohub,2013-02-19 12:13:00,
2013-02-19 05:18:00,20.3,10.0,30.31,NNW,339,5.0,5.0,64,0.00,,,0.00,meteohub,2013-02-19 12:18:00,
2013-02-19 05:24:00,20.8,9.9,30.31,NNW,335,5.0,7.0,62,0.00,,,0.00,meteohub,2013-02-19 12:24:00,
2013-02-19 05:29:00,21.0,10.0,30.31,NNW,328,3.0,7.0,62,0.00,,,0.00,meteohub,2013-02-19 12:29:00,
2013-02-19 05:34:00,21.0,10.0,30.31,NNW,335,2.0,7.0,62,0.00,,,0.00,meteohub,2013-02-19 12:34:00,
2013-02-19 05:39:00,21.4,10.8,30.31,NNW,347,5.0,7.0,63,0.00,,,0.00,meteohub,2013-02-19 12:39:00,
2013-02-19 05:44:00,21.4,11.5,30.32,NW,324,2.0,7.0,65,0.00,,,0.00,meteohub,2013-02-19 12:44:00,
2013-02-19 05:49:00,21.6,12.0,30.32,NNW,341,2.0,5.0,66,0.00,,,0.00,meteohub,2013-02-19 12:49:00,
2013-02-19 05:54:00,21.6,12.0,30.32,NNE,31,1.0,6.0,66,0.00,,,0.00,meteohub,2013-02-19 12:54:00,
2013-02-19 05:59:00,21.4,11.5,30.32,East,91,0.0,6.0,65,0.00,,,0.00,meteohub,2013-02-19 12:59:00,
2013-02-19 06:04:00,21.4,11.1,30.32,East,91,0.0,6.0,64,0.00,,,0.00,meteohub,2013-02-19 13:04:00,
2013-02-19 06:09:00,21.2,10.9,30.32,East,91,0.0,3.0,64,0.00,,,0.00,meteohub,2013-02-19 13:09:00,
2013-02-19 06:14:00,21.0,10.8,30.32,East,91,0.0,3.0,64,0.00,,,0.00,meteohub,2013-02-19 13:14:00,
2013-02-19 06:19:00,20.8,10.9,30.32,East,91,0.0,0.0,65,0.00,,,0.00,meteohub,2013-02-19 13:19:00,
2013-02-19 06:24:00,20.7,11.8,30.32,NE,46,1.0,0.0,68,0.00,,,0.00,meteohub,2013-02-19 13:24:00,
2013-02-19 06:29:00,20.7,12.4,30.32,NE,38,3.0,3.0,70,0.00,,,0.00,meteohub,2013-02-19 13:29:00,
2013-02-19 06:34:00,20.8,12.6,30.32,NE,48,1.0,3.0,70,0.00,,,0.00,meteohub,2013-02-19 13:34:00,
2013-02-19 06:39:00,20.7,12.4,30.33,ENE,70,1.0,3.0,70,0.00,,,0.00,meteohub,2013-02-19 13:39:00,
2013-02-19 06:44:00,20.7,12.0,30.33,East,98,2.0,3.0,69,0.00,,,0.00,meteohub,2013-02-19 13:44:00,
2013-02-19 06:49:00,20.5,11.7,30.33,ESE,116,2.0,3.0,68,0.00,,,0.00,meteohub,2013-02-19 13:49:00,
2013-02-19 06:54:00,20.1,11.3,30.32,ESE,106,1.0,3.0,68,0.00,,,0.00,meteohub,2013-02-19 13:54:00,
2013-02-19 06:59:00,19.9,11.1,30.32,ESE,105,2.0,3.0,68,0.00,,,0.00,meteohub,2013-02-19 13:59:00,
2013-02-19 07:04:00,19.8,10.9,30.32,ESE,104,1.0,3.0,68,0.00,,,0.00,meteohub,2013-02-19 14:04:00,
2013-02-19 07:09:00,19.6,11.1,30.32,ESE,117,2.0,3.0,69,0.00,,,0.00,meteohub,2013-02-19 14:09:00,
2013-02-19 07:14:00,19.4,11.3,30.32,ESE,116,1.0,3.0,70,0.00,,,0.00,meteohub,2013-02-19 14:14:00,
2013-02-19 07:19:00,19.4,11.3,30.33,ESE,117,0.0,3.0,70,0.00,,,0.00,meteohub,2013-02-19 14:19:00,
2013-02-19 07:24:00,19.6,11.7,30.32,ESE,117,0.0,3.0,71,0.00,,,0.00,meteohub,2013-02-19 14:24:00,
2013-02-19 07:29:00,19.6,11.7,30.32,ESE,117,0.0,3.0,71,0.00,,,0.00,meteohub,2013-02-19 14:29:00,
2013-02-19 07:34:00,19.8,12.2,30.33,ESE,121,2.0,2.0,72,0.00,,,0.00,meteohub,2013-02-19 14:34:00,
2013-02-19 07:39:00,19.9,12.4,30.33,ESE,122,0.0,2.0,72,0.00,,,0.00,meteohub,2013-02-19 14:39:00,
2013-02-19 07:44:00,19.9,12.4,30.34,ESE,122,0.0,2.0,72,0.00,,,0.00,meteohub,2013-02-19 14:44:00,
2013-02-19 07:49:00,20.1,12.6,30.34,ESE,122,1.0,2.0,72,0.00,,,0.00,meteohub,2013-02-19 14:49:00,
2013-02-19 07:54:00,20.5,12.9,30.33,ESE,106,2.0,2.0,72,0.00,,,0.00,meteohub,2013-02-19 14:54:00,
2013-02-19 07:59:00,20.7,12.7,30.33,NE,48,4.0,4.0,71,0.00,,,0.00,meteohub,2013-02-19 14:59:00,
2013-02-19 08:05:00,20.8,12.9,30.33,NE,55,1.0,4.0,71,0.00,,,0.00,meteohub,2013-02-19 15:05:00,
2013-02-19 08:10:00,20.8,12.9,30.33,NE,54,2.0,6.0,71,0.00,,,0.00,meteohub,2013-02-19 15:10:00,
2013-02-19 08:15:00,21.0,12.7,30.33,ENE,69,2.0,6.0,70,0.00,,,0.00,meteohub,2013-02-19 15:15:00,
2013-02-19 08:20:00,21.0,13.1,30.33,ESE,102,2.0,6.0,71,0.00,,,0.00,meteohub,2013-02-19 15:20:00,
2013-02-19 08:25:00,21.2,13.3,30.33,East,91,2.0,6.0,71,0.00,,,0.00,meteohub,2013-02-19 15:25:00,
2013-02-19 08:30:00,21.4,13.5,30.33,ENE,65,2.0,6.0,71,0.00,,,0.00,meteohub,2013-02-19 15:30:00,
2013-02-19 08:35:00,21.6,13.6,30.34,ENE,73,1.0,5.0,71,0.00,,,0.00,meteohub,2013-02-19 15:35:00,
2013-02-19 08:40:00,21.7,13.5,30.34,ESE,103,1.0,5.0,70,0.00,,,0.00,meteohub,2013-02-19 15:40:00,
2013-02-19 08:45:00,21.9,13.6,30.34,East,93,1.0,4.0,70,0.00,,,0.00,meteohub,2013-02-19 15:45:00,
2013-02-19 08:50:00,22.1,14.2,30.34,East,93,2.0,4.0,71,0.00,,,0.00,meteohub,2013-02-19 15:50:00,
2013-02-19 08:55:00,22.5,14.7,30.34,ENE,75,0.0,3.0,72,0.00,,,0.00,meteohub,2013-02-19 15:55:00,
2013-02-19 09:00:00,22.6,15.3,30.34,North,8,2.0,3.0,73,0.00,,,0.00,meteohub,2013-02-19 16:00:00,
2013-02-19 09:05:00,23.2,15.4,30.34,ENE,75,3.0,4.0,72,0.00,,,0.00,meteohub,2013-02-19 16:05:00,
2013-02-19 09:10:00,23.2,15.4,30.34,East,99,5.0,5.0,72,0.00,,,0.00,meteohub,2013-02-19 16:10:00,
2013-02-19 09:15:00,23.2,15.4,30.34,NE,49,1.0,6.0,72,0.00,,,0.00,meteohub,2013-02-19 16:15:00,
2013-02-19 09:20:00,23.4,15.6,30.34,East,88,6.0,7.0,72,0.00,,,0.00,meteohub,2013-02-19 16:20:00,
2013-02-19 09:25:00,23.4,15.6,30.34,ENE,59,2.0,7.0,72,0.00,,,0.00,meteohub,2013-02-19 16:25:00,
2013-02-19 09:30:00,23.5,15.4,30.34,ENE,62,3.0,7.0,71,0.00,,,0.00,meteohub,2013-02-19 16:30:00,
2013-02-19 09:35:00,23.5,15.4,30.33,East,81,0.0,7.0,71,0.00,,,0.00,meteohub,2013-02-19 16:35:00,
2013-02-19 09:40:00,23.5,15.4,30.33,East,80,1.0,5.0,71,0.00,,,0.00,meteohub,2013-02-19 16:40:00,
2013-02-19 09:45:00,23.9,15.8,30.33,ENE,68,2.0,5.0,71,0.00,,,0.00,meteohub,2013-02-19 16:45:00,
2013-02-19 09:50:00,24.1,15.8,30.33,NE,34,1.0,4.0,70,0.00,,,0.00,meteohub,2013-02-19 16:50:00,
2013-02-19 09:55:00,24.4,16.0,30.33,ENE,60,1.0,4.0,70,0.00,,,0.00,meteohub,2013-02-19 16:55:00,
2013-02-19 10:00:00,24.4,16.0,30.32,East,94,0.0,3.0,70,0.00,,,0.00,meteohub,2013-02-19 17:00:00,
2013-02-19 10:05:00,25.0,16.3,30.32,ENE,76,2.0,3.0,69,0.00,,,0.00,meteohub,2013-02-19 17:05:00,
2013-02-19 10:10:00,25.3,16.3,30.32,ENE,60,2.0,5.0,68,0.00,,,0.00,meteohub,2013-02-19 17:10:00,
2013-02-19 10:15:00,25.3,16.3,30.33,East,83,2.0,5.0,68,0.00,,,0.00,meteohub,2013-02-19 17:15:00,
2013-02-19 10:20:00,25.3,16.0,30.33,East,91,2.0,5.0,67,0.00,,,0.00,meteohub,2013-02-19 17:20:00,
2013-02-19 10:25:00,25.7,16.3,30.32,East,89,0.0,4.0,67,0.00,,,0.00,meteohub,2013-02-19 17:25:00,
2013-02-19 10:30:00,26.1,16.7,30.32,ESE,109,0.0,4.0,67,0.00,,,0.00,meteohub,2013-02-19 17:30:00,
2013-02-19 10:35:00,26.4,16.3,30.32,WNW,287,2.0,4.0,65,0.00,,,0.00,meteohub,2013-02-19 17:35:00,
2013-02-19 10:41:00,26.4,16.3,30.32,West,262,2.0,4.0,65,0.00,,,0.00,meteohub,2013-02-19 17:41:00,
2013-02-19 10:46:00,26.4,16.0,30.32,WSW,255,1.0,3.0,64,0.00,,,0.00,meteohub,2013-02-19 17:46:00,
2013-02-19 10:51:00,26.4,16.0,30.31,WSW,251,0.0,3.0,64,0.00,,,0.00,meteohub,2013-02-19 17:51:00,
2013-02-19 10:56:00,26.4,15.6,30.31,WNW,298,2.0,4.0,63,0.00,,,0.00,meteohub,2013-02-19 17:56:00,
2013-02-19 11:01:00,26.4,15.6,30.31,West,265,0.0,4.0,63,0.00,,,0.00,meteohub,2013-02-19 18:01:00,
2013-02-19 11:06:00,26.6,15.6,30.31,NNE,20,1.0,4.0,63,0.00,,,0.00,meteohub,2013-02-19 18:06:00,
2013-02-19 11:11:00,27.0,16.0,30.31,NE,37,0.0,4.0,63,0.00,,,0.00,meteohub,2013-02-19 18:11:00,
2013-02-19 11:16:00,27.5,16.2,30.31,East,96,3.0,4.0,62,0.00,,,0.00,meteohub,2013-02-19 18:16:00,
2013-02-19 11:21:00,27.9,16.2,30.31,West,281,1.0,3.0,61,0.00,,,0.00,meteohub,2013-02-19 18:21:00,
2013-02-19 11:26:00,27.7,15.6,30.31,West,276,1.0,5.0,60,0.00,,,0.00,meteohub,2013-02-19 18:26:00,
2013-02-19 11:31:00,27.9,16.2,30.30,SSW,212,2.0,5.0,61,0.00,,,0.00,meteohub,2013-02-19 18:31:00,
2013-02-19 11:36:00,28.2,15.8,30.30,NE,56,3.0,5.0,59,0.00,,,0.00,meteohub,2013-02-19 18:36:00,
2013-02-19 11:41:00,28.8,15.8,30.29,NNE,28,2.0,5.0,58,0.00,,,0.00,meteohub,2013-02-19 18:41:00,
2013-02-19 11:46:00,29.5,16.5,30.29,NNE,16,3.0,5.0,58,0.00,,,0.00,meteohub,2013-02-19 18:46:00,
2013-02-19 11:51:00,30.4,16.5,30.28,North,4,2.0,5.0,56,0.00,,,0.00,meteohub,2013-02-19 18:51:00,
2013-02-19 11:56:00,30.9,16.7,30.28,NE,51,1.0,5.0,55,0.00,,,0.00,meteohub,2013-02-19 18:56:00,
2013-02-19 12:01:00,31.3,16.2,30.27,NNE,33,4.0,7.0,53,0.00,,,0.00,meteohub,2013-02-19 19:01:00,
2013-02-19 12:06:00,31.6,16.5,30.28,NE,52,4.0,7.0,53,0.00,,,0.00,meteohub,2013-02-19 19:06:00,
2013-02-19 12:11:00,31.8,16.2,30.27,NW,308,1.0,7.0,52,0.00,,,0.00,meteohub,2013-02-19 19:11:00,
2013-02-19 12:16:00,32.7,16.5,30.27,NNE,12,3.0,7.0,51,0.00,,,0.00,meteohub,2013-02-19 19:16:00,
2013-02-19 12:21:00,33.3,16.7,30.26,ENE,73,3.0,5.0,50,0.00,,,0.00,meteohub,2013-02-19 19:21:00,
2013-02-19 12:26:00,33.4,16.3,30.26,NNE,30,3.0,5.0,49,0.00,,,0.00,meteohub,2013-02-19 19:26:00,
2013-02-19 12:31:00,33.3,15.3,30.25,NNE,31,1.0,5.0,47,0.00,,,0.00,meteohub,2013-02-19 19:31:00,
2013-02-19 12:36:00,33.3,15.3,30.24,WNW,297,3.0,7.0,47,0.00,,,0.00,meteohub,2013-02-19 19:36:00,
2013-02-19 12:41:00,32.7,14.7,30.24,West,264,2.0,7.0,47,0.00,,,0.00,meteohub,2013-02-19 19:41:00,
2013-02-19 12:46:00,33.4,15.4,30.24,North,354,0.0,7.0,47,0.00,,,0.00,meteohub,2013-02-19 19:46:00,
2013-02-19 12:51:00,34.3,14.7,30.24,ENE,57,1.0,6.0,44,0.00,,,0.00,meteohub,2013-02-19 19:51:00,
2013-02-19 12:56:00,34.9,15.3,30.23,ENE,58,3.0,8.0,44,0.00,,,0.00,meteohub,2013-02-19 19:56:00,
2013-02-19 13:01:00,35.1,14.4,30.23,NNW,345,4.0,8.0,42,0.00,,,0.00,meteohub,2013-02-19 20:01:00,
2013-02-19 13:06:00,35.1,14.4,30.23,ESE,116,0.0,8.0,42,0.00,,,0.00,meteohub,2013-02-19 20:06:00,
2013-02-19 13:12:00,35.6,14.2,30.22,South,170,2.0,8.0,41,0.00,,,0.00,meteohub,2013-02-19 20:12:00,
2013-02-19 13:17:00,36.3,14.4,30.22,SW,230,1.0,7.0,40,0.00,,,0.00,meteohub,2013-02-19 20:17:00,
2013-02-19 13:22:00,36.5,13.8,30.22,North,349,2.0,4.0,39,0.00,,,0.00,meteohub,2013-02-19 20:22:00,
2013-02-19 13:27:00,36.3,13.1,30.21,NNW,345,5.0,5.0,38,0.00,,,0.00,meteohub,2013-02-19 20:27:00,
2013-02-19 13:32:00,36.5,13.3,30.22,East,79,1.0,5.0,38,0.00,,,0.00,meteohub,2013-02-19 20:32:00,
2013-02-19 13:37:00,36.9,12.4,30.21,East,93,0.0,5.0,36,0.00,,,0.00,meteohub,2013-02-19 20:37:00,
2013-02-19 13:42:00,37.6,13.1,30.21,WSW,258,3.0,5.0,36,0.00,,,0.00,meteohub,2013-02-19 20:42:00,
2013-02-19 13:47:00,37.2,12.7,30.21,NW,322,3.0,6.0,36,0.00,,,0.00,meteohub,2013-02-19 20:47:00,
2013-02-19 13:52:00,37.0,11.8,30.21,NW,325,3.0,6.0,35,0.00,,,0.00,meteohub,2013-02-19 20:52:00,
2013-02-19 13:57:00,37.4,12.9,30.20,SSW,206,1.0,6.0,36,0.00,,,0.00,meteohub,2013-02-19 20:57:00,
2013-02-19 14:02:00,37.9,12.0,30.20,NW,322,2.0,6.0,34,0.00,,,0.00,meteohub,2013-02-19 21:02:00,
2013-02-19 14:07:00,38.1,12.2,30.19,SSW,205,2.0,6.0,34,0.00,,,0.00,meteohub,2013-02-19 21:07:00,
2013-02-19 14:11:00,38.7,12.0,30.19,West,275,4.0,5.0,33,0.00,,,0.00,meteohub,2013-02-19 21:11:00,
2013-02-19 14:12:00,38.7,12.0,30.19,West,280,3.0,5.0,33,0.00,,,0.00,meteohub,2013-02-19 21:12:00,
2013-02-19 14:17:00,38.3,11.7,30.19,NW,326,2.0,6.0,33,0.00,,,0.00,meteohub,2013-02-19 21:17:00,
2013-02-19 14:22:00,38.3,11.7,30.19,WSW,246,1.0,6.0,33,0.00,,,0.00,meteohub,2013-02-19 21:22:00,
2013-02-19 14:27:00,38.8,12.2,30.19,NNW,327,3.0,6.0,33,0.00,,,0.00,meteohub,2013-02-19 21:27:00,
2013-02-19 14:32:00,38.7,12.0,30.19,NNW,336,2.0,6.0,33,0.00,,,0.00,meteohub,2013-02-19 21:32:00,
2013-02-19 14:37:00,38.8,12.2,30.19,SW,214,1.0,6.0,33,0.00,,,0.00,meteohub,2013-02-19 21:37:00,
2013-02-19 14:42:00,39.0,11.7,30.18,NE,41,2.0,6.0,32,0.00,,,0.00,meteohub,2013-02-19 21:42:00,
2013-02-19 14:47:00,39.6,12.2,30.18,North,354,1.0,5.0,32,0.00,,,0.00,meteohub,2013-02-19 21:47:00,
2013-02-19 14:52:00,39.9,12.4,30.18,ESE,115,3.0,5.0,32,0.00,,,0.00,meteohub,2013-02-19 21:52:00,
2013-02-19 14:57:00,40.5,12.2,30.18,West,266,3.0,4.0,31,0.00,,,0.00,meteohub,2013-02-19 21:57:00,
2013-02-19 15:02:00,41.0,12.7,30.18,WNW,285,2.0,4.0,31,0.00,,,0.00,meteohub,2013-02-19 22:02:00,
2013-02-19 15:07:00,41.0,11.8,30.18,West,274,4.0,5.0,30,0.00,,,0.00,meteohub,2013-02-19 22:07:00,
2013-02-19 15:12:00,40.5,12.2,30.18,WSW,243,2.0,5.0,31,0.00,,,0.00,meteohub,2013-02-19 22:12:00,
2013-02-19 15:17:00,40.5,12.2,30.18,WNW,293,2.0,5.0,31,0.00,,,0.00,meteohub,2013-02-19 22:17:00,
2013-02-19 15:22:00,39.7,11.5,30.17,West,261,1.0,5.0,31,0.00,,,0.00,meteohub,2013-02-19 22:22:00,
2013-02-19 15:27:00,39.7,12.2,30.17,West,269,1.0,5.0,32,0.00,,,0.00,meteohub,2013-02-19 22:27:00,
2013-02-19 15:32:00,39.9,12.4,30.17,NNW,343,3.0,5.0,32,0.00,,,0.00,meteohub,2013-02-19 22:32:00,
2013-02-19 15:37:00,40.3,12.7,30.16,NNE,18,1.0,5.0,32,0.00,,,0.00,meteohub,2013-02-19 22:37:00,
2013-02-19 15:42:00,40.5,12.2,30.16,WNW,285,2.0,5.0,31,0.00,,,0.00,meteohub,2013-02-19 22:42:00,
2013-02-19 15:47:00,40.5,12.9,30.16,NNE,22,1.0,5.0,32,0.00,,,0.00,meteohub,2013-02-19 22:47:00,
2013-02-19 15:52:00,40.6,13.1,30.17,WNW,291,3.0,5.0,32,0.00,,,0.00,meteohub,2013-02-19 22:52:00,
2013-02-19 15:57:00,40.6,12.4,30.17,NW,323,3.0,6.0,31,0.00,,,0.00,meteohub,2013-02-19 22:57:00,
2013-02-19 16:02:00,40.8,12.6,30.16,West,264,2.0,6.0,31,0.00,,,0.00,meteohub,2013-02-19 23:02:00,
2013-02-19 16:07:00,41.0,12.7,30.16,West,280,3.0,6.0,31,0.00,,,0.00,meteohub,2013-02-19 23:07:00,
2013-02-19 16:12:00,41.4,12.9,30.17,NW,326,3.0,4.0,31,0.00,,,0.00,meteohub,2013-02-19 23:12:00,
2013-02-19 16:17:00,41.4,12.9,30.16,WNW,301,3.0,6.0,31,0.00,,,0.00,meteohub,2013-02-19 23:17:00,
2013-02-19 16:22:00,41.4,12.9,30.16,WNW,285,2.0,7.0,31,0.00,,,0.00,meteohub,2013-02-19 23:22:00,
2013-02-19 16:27:00,41.4,13.6,30.16,NNW,337,3.0,7.0,32,0.00,,,0.00,meteohub,2013-02-19 23:27:00,
2013-02-19 16:32:00,41.4,13.6,30.16,NNW,337,5.0,7.0,32,0.00,,,0.00,meteohub,2013-02-19 23:32:00,
2013-02-19 16:37:00,41.2,13.5,30.16,NNW,339,3.0,7.0,32,0.00,,,0.00,meteohub,2013-02-19 23:37:00,
2013-02-19 16:42:00,40.8,13.3,30.16,NW,317,3.0,7.0,32,0.00,,,0.00,meteohub,2013-02-19 23:42:00,
2013-02-19 16:47:00,40.5,13.6,30.15,North,349,3.0,6.0,33,0.00,,,0.00,meteohub,2013-02-19 23:47:00,
2013-02-19 16:52:00,40.3,13.5,30.15,North,4,4.0,6.0,33,0.00,,,0.00,meteohub,2013-02-19 23:52:00,
2013-02-19 16:57:00,40.3,13.5,30.15,NNW,341,2.0,6.0,33,0.00,,,0.00,meteohub,2013-02-19 23:57:00,
2013-02-19 17:02:00,39.9,13.8,30.16,NNW,344,2.0,5.0,34,0.00,,,0.00,meteohub,2013-02-20 00:02:00,
2013-02-19 17:07:00,39.9,13.8,30.15,North,4,3.0,6.0,34,0.00,,,0.00,meteohub,2013-02-20 00:07:00,
2013-02-19 17:12:00,39.7,13.6,30.16,NNW,345,2.0,6.0,34,0.00,,,0.00,meteohub,2013-02-20 00:12:00,
2013-02-19 17:17:00,39.6,13.5,30.16,NNW,335,2.0,6.0,34,0.00,,,0.00,meteohub,2013-02-20 00:17:00,
2013-02-19 17:23:00,39.6,13.5,30.16,North,349,2.0,6.0,34,0.00,,,0.00,meteohub,2013-02-20 00:23:00,
2013-02-19 17:28:00,39.4,13.3,30.16,NNW,342,4.0,6.0,34,0.00,,,0.00,meteohub,2013-02-20 00:28:00,
2013-02-19 17:33:00,39.0,13.6,30.16,NNW,338,1.0,6.0,35,0.00,,,0.00,meteohub,2013-02-20 00:33:00,
2013-02-19 17:38:00,38.8,13.5,30.16,NNW,337,3.0,6.0,35,0.00,,,0.00,meteohub,2013-02-20 00:38:00,
2013-02-19 17:43:00,38.7,13.3,30.16,NNW,338,2.0,7.0,35,0.00,,,0.00,meteohub,2013-02-20 00:43:00,
2013-02-19 17:48:00,38.5,13.3,30.16,NNW,335,2.0,7.0,35,0.00,,,0.00,meteohub,2013-02-20 00:48:00,
2013-02-19 17:53:00,38.3,13.6,30.16,NNW,347,2.0,7.0,36,0.00,,,0.00,meteohub,2013-02-20 00:53:00,
2013-02-19 17:58:00,38.1,13.5,30.15,NNW,342,2.0,5.0,36,0.00,,,0.00,meteohub,2013-02-20 00:58:00,
2013-02-19 18:03:00,37.9,13.3,30.15,NNW,343,0.0,5.0,36,0.00,,,0.00,meteohub,2013-02-20 01:03:00,
2013-02-19 18:08:00,37.9,13.3,30.16,NNW,343,0.0,3.0,36,0.00,,,0.00,meteohub,2013-02-20 01:08:00,
2013-02-19 18:13:00,37.6,13.6,30.16,NNW,343,0.0,3.0,37,0.00,,,0.00,meteohub,2013-02-20 01:13:00,
2013-02-19 18:18:00,37.2,13.3,30.16,NNW,343,1.0,1.0,37,0.00,,,0.00,meteohub,2013-02-20 01:18:00,
2013-02-19 18:23:00,37.0,13.1,30.16,NW,314,1.0,2.0,37,0.00,,,0.00,meteohub,2013-02-20 01:23:00,
2013-02-19 18:28:00,36.9,13.1,30.16,NW,316,0.0,2.0,37,0.00,,,0.00,meteohub,2013-02-20 01:28:00,
2013-02-19 18:33:00,36.9,13.6,30.16,NW,316,2.0,3.0,38,0.00,,,0.00,meteohub,2013-02-20 01:33:00,
2013-02-19 18:38:00,36.7,13.5,30.16,NNW,330,1.0,3.0,38,0.00,,,0.00,meteohub,2013-02-20 01:38:00,
2013-02-19 18:43:00,36.3,13.1,30.16,NNW,345,1.0,3.0,38,0.00,,,0.00,meteohub,2013-02-20 01:43:00,
2013-02-19 18:48:00,36.3,13.1,30.15,NNW,341,1.0,3.0,38,0.00,,,0.00,meteohub,2013-02-20 01:48:00,
2013-02-19 18:53:00,36.1,12.9,30.15,NNW,335,2.0,4.0,38,0.00,,,0.00,meteohub,2013-02-20 01:53:00,
2013-02-19 18:58:00,36.1,12.9,30.15,NNW,340,1.0,4.0,38,0.00,,,0.00,meteohub,2013-02-20 01:58:00,
2013-02-19 19:03:00,36.0,12.7,30.16,NNW,347,1.0,4.0,38,0.00,,,0.00,meteohub,2013-02-20 02:03:00,
2013-02-19 19:08:00,36.0,13.5,30.16,NNW,345,1.0,3.0,39,0.00,,,0.00,meteohub,2013-02-20 02:08:00,
2013-02-19 19:13:00,36.0,13.5,30.16,North,354,2.0,3.0,39,0.00,,,0.00,meteohub,2013-02-20 02:13:00,
2013-02-19 19:18:00,36.0,13.5,30.16,North,350,2.0,4.0,39,0.00,,,0.00,meteohub,2013-02-20 02:18:00,
2013-02-19 19:23:00,35.8,13.3,30.15,North,354,1.0,4.0,39,0.00,,,0.00,meteohub,2013-02-20 02:23:00,
2013-02-19 19:28:00,35.6,13.1,30.15,NNW,335,3.0,4.0,39,0.00,,,0.00,meteohub,2013-02-20 02:28:00,
2013-02-19 19:33:00,35.4,12.9,30.15,NNW,331,2.0,4.0,39,0.00,,,0.00,meteohub,2013-02-20 02:33:00,
2013-02-19 19:38:00,35.2,12.7,30.14,North,8,2.0,4.0,39,0.00,,,0.00,meteohub,2013-02-20 02:38:00,
2013-02-19 19:43:00,35.1,13.1,30.14,NNW,330,2.0,5.0,40,0.00,,,0.00,meteohub,2013-02-20 02:43:00,
2013-02-19 19:48:00,35.1,13.1,30.14,North,354,1.0,5.0,40,0.00,,,0.00,meteohub,2013-02-20 02:48:00,
2013-02-19 19:53:00,34.9,12.9,30.14,North,349,2.0,5.0,40,0.00,,,0.00,meteohub,2013-02-20 02:53:00,
2013-02-19 19:58:00,34.5,12.7,30.14,NNW,346,2.0,5.0,40,0.00,,,0.00,meteohub,2013-02-20 02:58:00,
2013-02-19 20:03:00,34.5,13.3,30.14,North,359,4.0,5.0,41,0.00,,,0.00,meteohub,2013-02-20 03:03:00,
2013-02-19 20:08:00,34.3,13.1,30.13,North,349,3.0,6.0,41,0.00,,,0.00,meteohub,2013-02-20 03:08:00,
2013-02-19 20:13:00,34.3,13.1,30.13,NNW,347,3.0,6.0,41,0.00,,,0.00,meteohub,2013-02-20 03:13:00,
2013-02-19 20:18:00,34.2,12.9,30.13,NNW,334,4.0,6.0,41,0.00,,,0.00,meteohub,2013-02-20 03:18:00,
2013-02-19 20:23:00,34.0,13.3,30.13,NNW,330,6.0,7.0,42,0.00,,,0.00,meteohub,2013-02-20 03:23:00,
2013-02-19 20:28:00,34.0,13.3,30.13,NW,312,3.0,7.0,42,0.00,,,0.00,meteohub,2013-02-20 03:28:00,
2013-02-19 20:34:00,33.8,13.1,30.13,North,354,3.0,7.0,42,0.00,,,0.00,meteohub,2013-02-20 03:34:00,
2013-02-19 20:39:00,33.6,12.9,30.13,North,4,3.0,7.0,42,0.00,,,0.00,meteohub,2013-02-20 03:39:00,
2013-02-19 20:44:00,33.8,13.1,30.13,NNW,336,3.0,8.0,42,0.00,,,0.00,meteohub,2013-02-20 03:44:00,
2013-02-19 20:49:00,33.8,13.1,30.13,NNW,335,4.0,8.0,42,0.00,,,0.00,meteohub,2013-02-20 03:49:00,
2013-02-19 20:54:00,33.6,12.9,30.13,North,350,3.0,9.0,42,0.00,,,0.00,meteohub,2013-02-20 03:54:00,
2013-02-19 20:59:00,33.4,12.7,30.13,North,349,2.0,9.0,42,0.00,,,0.00,meteohub,2013-02-20 03:59:00,
2013-02-19 21:04:00,33.4,12.7,30.13,NNW,348,3.0,9.0,42,0.00,,,0.00,meteohub,2013-02-20 04:04:00,
2013-02-19 21:09:00,33.1,13.1,30.13,NNE,22,4.0,7.0,43,0.00,,,0.00,meteohub,2013-02-20 04:09:00,
2013-02-19 21:14:00,33.1,13.1,30.13,NNW,345,3.0,7.0,43,0.00,,,0.00,meteohub,2013-02-20 04:14:00,
2013-02-19 21:19:00,32.7,13.3,30.13,North,8,2.0,6.0,44,0.00,,,0.00,meteohub,2013-02-20 04:19:00,
2013-02-19 21:24:00,32.4,13.5,30.13,NNE,21,4.0,9.0,45,0.00,,,0.00,meteohub,2013-02-20 04:24:00,
2013-02-19 21:29:00,32.4,13.5,30.13,North,4,4.0,9.0,45,0.00,,,0.00,meteohub,2013-02-20 04:29:00,
2013-02-19 21:34:00,31.6,13.3,30.13,North,354,3.0,9.0,46,0.00,,,0.00,meteohub,2013-02-20 04:34:00,
2013-02-19 21:39:00,31.5,14.0,30.13,NNW,339,5.0,7.0,48,0.00,,,0.00,meteohub,2013-02-20 04:39:00,
2013-02-19 21:44:00,31.3,13.8,30.12,NE,35,2.0,9.0,48,0.00,,,0.00,meteohub,2013-02-20 04:44:00,
2013-02-19 21:49:00,30.9,14.0,30.12,NNW,344,3.0,9.0,49,0.00,,,0.00,meteohub,2013-02-20 04:49:00,
2013-02-19 21:54:00,30.7,14.4,30.12,North,354,5.0,9.0,50,0.00,,,0.00,meteohub,2013-02-20 04:54:00,
2013-02-19 21:59:00,30.6,14.2,30.12,NNW,346,3.0,9.0,50,0.00,,,0.00,meteohub,2013-02-20 04:59:00,
2013-02-19 22:00:00,30.4,14.4,30.12,NNW,347,2.0,9.0,51,0.00,,,0.00,meteohub,2013-02-20 05:00:00,
2013-02-19 22:01:00,30.4,14.4,30.12,North,354,5.0,9.0,51,0.00,,,0.00,meteohub,2013-02-20 05:01:00,
2013-02-19 22:06:00,30.0,14.5,30.12,North,4,2.0,9.0,52,0.00,,,0.00,meteohub,2013-02-20 05:06:00,
2013-02-19 22:11:00,29.8,14.7,30.12,NNW,343,3.0,8.0,53,0.00,,,0.00,meteohub,2013-02-20 05:11:00,
2013-02-19 22:16:00,29.7,15.1,30.12,NNW,331,4.0,8.0,54,0.00,,,0.00,meteohub,2013-02-20 05:16:00,
2013-02-19 22:21:00,29.3,15.1,30.12,NNW,329,5.0,8.0,55,0.00,,,0.00,meteohub,2013-02-20 05:21:00,
2013-02-19 22:26:00,29.1,15.4,30.12,NNW,342,6.0,8.0,56,0.00,,,0.00,meteohub,2013-02-20 05:26:00,
2013-02-19 22:31:00,29.1,15.4,30.12,NNW,327,5.0,10.0,56,0.00,,,0.00,meteohub,2013-02-20 05:31:00,
2013-02-19 22:36:00,29.1,15.4,30.12,North,10,4.0,10.0,56,0.00,,,0.00,meteohub,2013-02-20 05:36:00,
2013-02-19 22:41:00,28.9,15.6,30.12,North,359,3.0,10.0,57,0.00,,,0.00,meteohub,2013-02-20 05:41:00,
2013-02-19 22:46:00,28.9,15.6,30.11,NNW,346,6.0,11.0,57,0.00,,,0.00,meteohub,2013-02-20 05:46:00,
2013-02-19 22:51:00,28.8,15.8,30.11,North,4,2.0,11.0,58,0.00,,,0.00,meteohub,2013-02-20 05:51:00,
2013-02-19 22:56:00,28.6,15.6,30.10,North,9,3.0,11.0,58,0.00,,,0.00,meteohub,2013-02-20 05:56:00,
2013-02-19 23:01:00,28.6,15.6,30.10,North,4,3.0,11.0,58,0.00,,,0.00,meteohub,2013-02-20 06:01:00,
2013-02-19 23:06:00,28.2,15.8,30.10,NE,35,2.0,11.0,59,0.00,,,0.00,meteohub,2013-02-20 06:06:00,
2013-02-19 23:11:00,28.2,15.8,30.10,NNE,19,1.0,11.0,59,0.00,,,0.00,meteohub,2013-02-20 06:11:00,
2013-02-19 23:16:00,28.0,15.6,30.10,NNE,23,2.0,8.0,59,0.00,,,0.00,meteohub,2013-02-20 06:16:00,
2013-02-19 23:21:00,27.9,15.8,30.10,North,11,3.0,6.0,60,0.00,,,0.00,meteohub,2013-02-20 06:21:00,
2013-02-19 23:26:00,27.7,15.6,30.10,North,359,4.0,6.0,60,0.00,,,0.00,meteohub,2013-02-20 06:26:00,
2013-02-19 23:31:00,27.7,15.6,30.10,North,354,2.0,9.0,60,0.00,,,0.00,meteohub,2013-02-20 06:31:00,
2013-02-19 23:36:00,27.5,15.8,30.10,NNW,347,3.0,10.0,61,0.00,,,0.00,meteohub,2013-02-20 06:36:00,
2013-02-19 23:41:00,27.3,15.6,30.09,North,10,3.0,10.0,61,0.00,,,0.00,meteohub,2013-02-20 06:41:00,
2013-02-19 23:46:00,27.3,15.6,30.09,North,359,4.0,10.0,61,0.00,,,0.00,meteohub,2013-02-20 06:46:00,
2013-02-19 23:51:00,27.1,15.8,30.09,NE,47,5.0,9.0,62,0.00,,,0.00,meteohub,2013-02-20 06:51:00,
2013-02-19 23:56:00,26.8,15.4,30.09,North,354,5.0,9.0,62,0.00,,,0.00,meteohub,2013-02-20 06:56:00,